Portada
METAR-TAF:

METAR-TAF

Aeroports :

Sint Eustatius, Antilles Neerlandeses

latitud: 17-29N, longitud: 062-59W, altitud: 38 m

Observació

L'informe es va fer fa 1 hora i 9 minuts, a les 15:55 UTC
Vent 7 kt del Est, variant entre Est/Nord-Est i Sud-Est
Temperatura 31°C
Humitat 66%
Pressió 1016 hPa

METAR: TNCE 241555Z AUTO 10007KT 070V140 //// // ///////// 31/24 Q1016 RE//

Hora: 13:04 (17:04 UTC)


TAF: manca

Observacions i pronòstics meteorològics de més de 4000 aeroports (METAR i TAF).

Les estacions disponibles són els punts grocs i vermells al mapa.

Posi el ratolí al punt desitjat per veure el nom de l'estació.

Feu clic per veure les observacions i els pronòstics meteorològics.

Per canviar el mapa: feu clic els botons verds amb una creu de color negre per apropar; al botó verd amb un guió per allunyar la imatge; o en les fletxes verdes per a mapes adjacents.


METAR-TAF: